532  
ASUS43 KFSD 120510  
RWRSD  
 
WEATHER ROUNDUP FOR SOUTH DAKOTA  
NATIONAL WEATHER SERVICE SIOUX FALLS SD  
1200 AM CDT FRI AUG 12 2022  
 
NOTE: "FAIR" INDICATES FEW OR NO CLOUDS BELOW 12,000 FEET WITH NO  
SIGNIFICANT WEATHER AND/OR S TO VISIBILITY
.  
 
 
SDZ001>005-009-010-012>017-120600-  
NORTHWEST AND NORTH CENTRAL SOUTH DAKOTA  
 
CITY SKY/WX TMP DP RH WIND PRES REMARKS
 
BUFFALO N/A 81 61 50 N7 30.00R  
FAITH N/A 78 66 66 SE15 29.93S  
MOBRIDGE CLEAR 71 65 81 E7 29.93S  

 
 
SDZ012>016-024>037-041>051-057-063-072>074-120600-  
SOUTHWEST AND SOUTH CENTRAL SOUTH DAKOTA  
 
CITY SKY/WX TMP DP RH WIND PRES REMARKS
 
RAPID CTY ARPT MOCLDY 84 49 29 W3 30.02R  
PIERRE CLEAR 79 71 76 SE14 29.92F  
CUSTER PTCLDY 76 44 32 S3 30.21F  
ELLSWORTH AFB CLOUDY 86 47 25 S7 30.00R  
PHILIP PTCLDY 82 49 31 S12 29.93F  
PINE RIDGE CLEAR 85 50 29 S20G32 30.05S  
SPEARFISH FAIR 79 59 50 W7G13 30.11R  
WINNER CLEAR 85 59 41 S20G30 30.01R  

 
 
SDZ004>011-016>023-039-040-120600-  
NORTHEAST SOUTH DAKOTA  
 
CITY SKY/WX TMP DP RH WIND PRES REMARKS
 
ABERDEEN CLEAR 67 65 93 NE5 29.99F  
WATERTOWN CLEAR 67 64 90 SE10 30.05F  
BROOKINGS PTCLDY 67 66 97 SE21 30.07F  
SISSETON N/A 67 60 78 SE12 30.06F  

 
 
SDZ017-020-022-023-036>040-048>070-120600-  
SOUTHEAST SOUTH DAKOTA  
 
CITY SKY/WX TMP DP RH WIND PRES REMARKS
 
SIOUX FALLS MOCLDY 73 69 87 SE10G21 30.08S  
HURON CLEAR 74 69 85 SE14 29.97F  
CHAMBERLAIN CLEAR 78 61 54 S13 29.98S  
MADISON N/A 68 68 100 SE14 30.07F  
MITCHELL CLEAR 79 65 62 SE13 29.99F  
YANKTON CLEAR 75 65 70 E8 30.06R  

 
 
ABBREVIATIONS USED IN REMARKS  
TC - TEMPERATURE IN CELSIUS  
WCI - WIND CHILL INDEX  
HX - HEAT INDEX  
VSB - VISIBILITY  
 
 
 
CLICK HERE TO GO TO PREVIOUS BULLETINS.

The Nexlab SD Page Main Text Page